Winston-Salem, NC

7:25 AM EST on January 17, 2018 (GMT -0500)
Smith Reynolds

Weather History for KINT - June, 2013

Change the Weather History Date:

Saturday, June 1, 2013

  Actual Average Record
Temperature  
Mean Temperature 78 °F -  
Max Temperature 86 °F 78 °F 95 °F (1991)
Min Temperature 70 °F 59 °F 37 °F (1966)
Cooling Degree Days 13    
Growing Degree Days 28 (Base 50)    
Moisture  
Dew Point 63 °F    
Average Humidity 63    
Maximum Humidity 87    
Minimum Humidity 40    
Precipitation  
Precipitation 0.00 in - - ()
Sea Level Pressure  
Sea Level Pressure 30.08 in    
Wind  
Wind Speed 6 mph (SSW)    
Max Wind Speed 10 mph    
Max Gust Speed 17 mph    
Visibility 10 miles    
Events      
Averages and records for this station are not official NWS values.
T = Trace of Precipitation, MM = Missing Value Source: NWS Daily Summary

Daily Weather History Graph

Daily Weather History Graph

Search for Another Location

Airport or City:

Trip Planner

Search our weather history database for the weather conditions in past years. The results will help you decide how hot, cold, wet, or windy it might be!

Date:

Astronomy

Jun. 01, 2013 Rise Set
Actual Time 6:05 AM EDT 8:32 PM EDT
Civil Twilight 5:35 AM EDT 9:02 PM EDT
Nautical Twilight 4:58 AM EDT 9:39 PM EDT
Astronomical Twilight 4:18 AM EDT 10:20 PM EDT
Moon 1:48 AM EDT (6/1) 2:11 PM EDT (6/1)
Length of Visible Light 15h 27m
Length of Day
14h 27m
Last Quarter, 41% of the Moon is Illuminated
Jun 1
Last Quarter
Jun 8
New
Jun 16
First Quarter
Jun 23
Full
Jun 30
Last Quarter

Hourly Weather History & Observations

Time (EDT) Temp. Heat Index Dew Point Humidity Pressure Visibility Wind Dir Wind Speed Gust Speed Precip Events Conditions
12:54 AM 73.9 °F - 66.0 °F 76% 30.11 in 10.0 mi South 5.8 mph - N/A   Clear
1:54 AM 73.0 °F - 66.0 °F 79% 30.11 in 10.0 mi SSW 5.8 mph - N/A   Clear
2:54 AM 72.0 °F - 66.0 °F 81% 30.11 in 10.0 mi SSW 5.8 mph - N/A   Clear
3:54 AM 71.1 °F - 66.0 °F 84% 30.11 in 10.0 mi South 4.6 mph - N/A   Clear
4:54 AM 70.0 °F - 66.0 °F 87% 30.11 in 10.0 mi South 4.6 mph - N/A   Clear
5:54 AM 70.0 °F - 66.0 °F 87% 30.12 in 10.0 mi Variable 5.8 mph - N/A   Partly Cloudy
6:54 AM 70.0 °F - 66.0 °F 87% 30.12 in 10.0 mi South 5.8 mph - N/A   Clear
7:54 AM 72.0 °F - 66.0 °F 81% 30.12 in 10.0 mi SSW 5.8 mph - N/A   Clear
8:54 AM 73.9 °F - 64.9 °F 73% 30.12 in 10.0 mi SW 4.6 mph - N/A   Clear
9:54 AM 77.0 °F - 64.0 °F 64% 30.11 in 10.0 mi West 9.2 mph 17.3 mph N/A   Clear
10:54 AM 80.1 °F 81.2 °F 62.1 °F 54% 30.11 in 10.0 mi SSW 6.9 mph - N/A   Clear
11:54 AM 81.0 °F 81.6 °F 60.1 °F 49% 30.10 in 10.0 mi WSW 9.2 mph 17.3 mph N/A   Clear
12:54 PM 82.9 °F 83.2 °F 60.1 °F 46% 30.09 in 10.0 mi South 8.1 mph 16.1 mph N/A   Clear
1:54 PM 84.9 °F 84.2 °F 57.9 °F 40% 30.07 in 10.0 mi SSW 10.4 mph 17.3 mph N/A   Clear
2:54 PM 84.9 °F 84.4 °F 59.0 °F 41% 30.05 in 10.0 mi SW 8.1 mph - N/A   Partly Cloudy
3:54 PM 86.0 °F 85.7 °F 60.1 °F 41% 30.04 in 10.0 mi SSW 8.1 mph - N/A   Partly Cloudy
4:54 PM 84.9 °F 84.8 °F 60.1 °F 43% 30.03 in 10.0 mi SSW 8.1 mph - N/A   Scattered Clouds
5:54 PM 82.9 °F 82.8 °F 59.0 °F 44% 30.03 in 10.0 mi SW 6.9 mph 17.3 mph N/A   Clear
6:54 PM 82.9 °F 83.2 °F 60.1 °F 46% 30.02 in 10.0 mi SW 8.1 mph 17.3 mph N/A   Clear
7:54 PM 82.0 °F 82.1 °F 59.0 °F 45% 30.02 in 10.0 mi Variable 5.8 mph - N/A   Clear
8:54 PM 79.0 °F - 61.0 °F 54% 30.01 in 10.0 mi South 3.5 mph - N/A   Clear
9:54 PM 73.9 °F - 62.1 °F 66% 30.03 in 10.0 mi SSE 3.5 mph - N/A   Clear
10:54 PM 75.0 °F - 62.1 °F 64% 30.04 in 10.0 mi Calm Calm - N/A   Clear
11:54 PM 71.1 °F - 63.0 °F 75% 30.04 in 10.0 mi SSE 4.6 mph - N/A   Scattered Clouds